Showing default

FLOCK 4Q 33, 58308

Orbit data source: Space-Track

FLOCK 4Q 33, 58308 is a payload satellite owned by Planet (US) in SSO that was launched on Sat, 11 Nov 2023 UTC via an FALCON 9 launch vehicle from the Air Force Western Test Range (AFWTR). Payload-class satellites include a variety of spacecraft equipped with specific instruments for various scientific and technological missions. These include communications satellites like Starlink; space stations such as the ISS; scientific satellites like the Hubble; Earth observation satellites from companies like Planet Labs, Umbra, and HawkEye 360; GPS; miniature CubeSats for education and research; and military/defense satellites.

Loading next visibility...
Identifier
58308, 2023-174BE
Orbit
SSO
Country
Flag of USUS
Related business
Manufacturer
Planet
Mission
Non-operational Commercial Imaging
Bus & Motor
CUBESAT 3U, Unknown motor
Mass
5.7 kg wet, 5.7 kg dry
Launch date (UTC)
2023-11-11 (3 years ago)
Launch vehicle
FALCON 9
Launch site
Air Force Western Test Range (AFWTR)
Object type
Payload
Rocket body
Debris
Shape & HBR
Box + 2 Pan, 1.0 m
Radar Cross Section
0.072 m², Medium (>0.1 m² and < 1m²)

Expand to show TLE details & history
Last TLE update: 2 days ago

TLE from 2 days ago
0 FLOCK 4Q 33
1 58308U 23174BE  26171.18873621  .00026138  00000-0  34600-3 0  9990
2 58308  97.3860 263.3633 0006508 124.5938 235.5932 15.58267981146301
Epoch: 2026-06-20T04:31Z
TLE epoch observation values (Epoch: 2026-06-20T04:31:46.808Z)
Latitude
-0.00009°
Longitude
-72.98866°
Altitude
398.305 km
Speed
7.67 km/s
True Right ascension
17h 33m 27s
True Declination
0° 00' 00"
Sunlit
Object was in full shadow at epoch
Visualization orbit readout
Latitude
Unknown
Longitude
Unknown
Altitude
Unknown
Speed
Unknown
Apparent Right ascension
Unknown
Apparent Declination
Unknown
Sunlit
N/A
Visualization observer readout
Local Sidereal Time
21:39:07
Azimuth
Unknown
Elevation
Unknown
Doppler factor
Unknown
Orbital elements
Apogee altitude
393.988 km
Perigee altitude
385.179 km
Semi-major axis
6,767.721 km
Eccentricity
0.00065
Inclination
97.386°
RAAN
263.3633°
Arg. of periapsis
124.5938°
True anomaly
235.5317°
Mean anomaly
235.5932°
Eccentric anomaly
235.56245°
Mean motion
3.89834 °/min
Orbital period
92.35 mins
BSTAR
0.000346
Loading maneuver chart data...
Computing Atmospheric mass density...

Documentation

Showing up to 5 results
|